STARLINK-32753

Last updated on Fri Jan 31 2025 00:02:04 GMT+0000 (Coordinated Universal Time)

1 62481U 24254V 25030.56205048 -.00000248 00000+0 15907-5 0 9999 2 62481 43.0014 137.0166 0001380 288.0512 72.0198 15.50572804 5950
UTC large
Height (km)
Speed (km/s)
/
Latitude / Longitude
Inclination (degrees)
Orbital Period (minutes)
Azimuth
Elevation
Range (km)
Doppler Factor

Next 0 passes for location: London (51.5072 / 0.1276)

Sorry there are no passes over London.